Alliance, NE

6:04 AM MST on January 21, 2018 (GMT -0700)
Alliance Municipal

Weather History for KAIA - October, 2013

Change the Weather History Date:

Wednesday, October 23, 2013

  Actual Average Record
Temperature  
Mean Temperature 45 °F 43 °F  
Max Temperature 61 °F 59 °F 87 °F (2003)
Min Temperature 29 °F 27 °F 5 °F (1917)
Degree Days  
Heating Degree Days 20 22  
Month to date heating degree days 468 408  
Since 1 July heating degree days 597 653  
Cooling Degree Days 0 0  
Month to date cooling degree days 0 0  
Year to date cooling degree days 795 563  
Moisture  
Dew Point 35 °F    
Average Humidity 70    
Maximum Humidity 100    
Minimum Humidity 39    
Precipitation  
Precipitation 0.00 in 0.04 in 1.30 in (1906)
Month to date precipitation 0.93 0.95  
Year to date precipitation 12.87 14.75  
Sea Level Pressure  
Sea Level Pressure 30.13 in    
Wind  
Wind Speed 11 mph (NW)    
Max Wind Speed 22 mph    
Max Gust Speed 30 mph    
Visibility 10 miles    
Events      
T = Trace of Precipitation, MM = Missing Value Source: NWS Daily Summary

Daily Weather History Graph

Daily Weather History Graph

Search for Another Location

Airport or City:

Trip Planner

Search our weather history database for the weather conditions in past years. The results will help you decide how hot, cold, wet, or windy it might be!

Date:

Astronomy

Oct. 23, 2013 Rise Set
Actual Time 7:13 AM MDT 5:56 PM MDT
Civil Twilight 6:44 AM MDT 6:25 PM MDT
Nautical Twilight 6:12 AM MDT 6:58 PM MDT
Astronomical Twilight 5:39 AM MDT 7:30 PM MDT
Moon 9:27 PM MDT (10/23) 11:34 AM MDT (10/23)
Length of Visible Light 11h 40m
Length of Day
10h 43m
Waning Gibbous, 79% of the Moon is Illuminated
Oct 23
Waning Gibbous
Oct 26
Last Quarter
Nov 3
New
Nov 9
First Quarter
Nov 17
Full

Hourly Weather History & Observations

Time (MDT) Temp. Windchill Dew Point Humidity Pressure Visibility Wind Dir Wind Speed Gust Speed Precip Events Conditions
12:53 AM 39.9 °F 33.4 °F 37.0 °F 89% 30.08 in 10.0 mi SW 10.4 mph - N/A   Clear
1:53 AM 42.1 °F 36.1 °F 37.9 °F 85% 30.05 in 10.0 mi SW 10.4 mph - N/A   Clear
2:53 AM 39.0 °F 35.7 °F 35.1 °F 86% 30.05 in 10.0 mi WNW 4.6 mph - N/A   Clear
3:53 AM 37.9 °F 32.1 °F 34.0 °F 86% 30.04 in 10.0 mi West 8.1 mph - N/A   Clear
4:53 AM 36.0 °F 30.3 °F 33.1 °F 89% 30.05 in 10.0 mi West 6.9 mph - N/A   Clear
5:53 AM 30.9 °F 25.2 °F 30.0 °F 96% 30.08 in 10.0 mi West 5.8 mph - N/A   Clear
6:53 AM 33.1 °F 26.1 °F 32.0 °F 96% 30.10 in 10.0 mi West 8.1 mph - N/A   Clear
7:53 AM 36.0 °F 28.5 °F 34.0 °F 93% 30.11 in 10.0 mi West 10.4 mph - N/A   Clear
8:53 AM 46.9 °F - 39.9 °F 77% 30.10 in 10.0 mi West 13.8 mph - N/A   Clear
9:53 AM 54.0 °F - 39.0 °F 57% 30.10 in 10.0 mi NW 16.1 mph - N/A   Partly Cloudy
10:53 AM 60.1 °F - 35.1 °F 39% 30.09 in 10.0 mi NNW 20.7 mph 27.6 mph N/A   Clear
11:53 AM 57.0 °F - 37.0 °F 47% 30.11 in 10.0 mi North 18.4 mph 24.2 mph N/A   Partly Cloudy
12:53 PM 60.1 °F - 37.9 °F 44% 30.10 in 10.0 mi NNW 16.1 mph 21.9 mph N/A   Clear
1:53 PM 60.1 °F - 37.9 °F 44% 30.08 in 10.0 mi NNW 15.0 mph - N/A   Partly Cloudy
2:53 PM 59.0 °F - 37.0 °F 44% 30.10 in 10.0 mi NNW 12.7 mph 25.3 mph N/A   Clear
3:53 PM 57.9 °F - 39.0 °F 49% 30.11 in 10.0 mi North 13.8 mph - N/A   Clear
4:53 PM 55.0 °F - 39.9 °F 57% 30.13 in 10.0 mi NNE 11.5 mph - N/A   Clear
5:53 PM 48.9 °F - 37.9 °F 66% 30.17 in 10.0 mi NE 9.2 mph - N/A   Clear
6:53 PM 44.1 °F 37.4 °F 37.0 °F 76% 30.21 in 10.0 mi NE 13.8 mph - N/A   Mostly Cloudy
7:53 PM 41.0 °F 34.7 °F 35.1 °F 79% 30.23 in 10.0 mi NNE 10.4 mph - N/A   Mostly Cloudy
8:53 PM 37.0 °F 31.0 °F 34.0 °F 89% 30.24 in 10.0 mi NNE 8.1 mph - N/A   Clear
9:53 PM 34.0 °F 27.2 °F 32.0 °F 92% 30.25 in 10.0 mi SW 8.1 mph - N/A   Mostly Cloudy
10:53 PM 32.0 °F 26.4 °F 30.0 °F 92% 30.25 in 10.0 mi West 5.8 mph - N/A   Partly Cloudy
11:53 PM 30.9 °F 27.5 °F 30.0 °F 96% 30.27 in 10.0 mi West 3.5 mph - N/A   Partly Cloudy